Location: Newport
(44.6370°N, 124.0520°W)
Time: 06:40:52
(UTC-07:00)

Envisat - Pass Details

Date: 16 October 2017
Orbit: 764 x 766 km, 98.2° (Epoch: 23 October)

Event Time Altitude Azimuth Distance (km) Brightness Sun altitude
Exits shadow 19:26:29 14° 74° (ENE) 2,056 4.6 -10.9°
Maximum altitude 19:27:42 15° 58° (ENE) 1,991 4.6 -11.1°
Drops below altitude 10° 19:30:27 10° 26° (NNE) 2,311 5.2 -11.6°
Sets 19:33:44 0° 3° (N) 3,242 6.2 -12.2°
